Flag for Cabo Verde Weather past 2 weeks in Santa Maria, Cabo Verde

Now
79 °F

Scattered clouds.


Feels Like: 81 °F
Forecast: 77 / 85 °F
Wind: 12 mph from Northeast

Location: Sal

Current Time: Aug 4, 2015 at 9:00:42 AM

Latest Report: Aug 4, 2015 at 8:00 AM


Visibility: N/A

Pressure: 29.98 "Hg

Humidity: 74%

Dew point: 70 °F

Location of Santa MariaLocation

Historic Weather in Santa Maria — Graph

°F

Santa Maria temperature yesterday

Maximum temperature yesterday: 86 °F (at 2:00 PM)
Minimum temperature yesterday: 75 °F (at 7:00 AM)
Average temperature yesterday: 79 °F

Past Weeks' High & Low Weather Summary

 TemperatureHumidityPressure
High86 °F (Jul 27, 12:00 PM)94% (Aug 3, 7:00 AM)30.04 "Hg (Aug 3, 7:00 AM)
Low73 °F (Jul 21, 6:00 AM)51% (Jul 31, 2:00 PM)29.86 "Hg (Jul 24, 4:00 PM)
Average79 °F72%29.95 "Hg
* Reported Jul 20 8:00 AM — Aug 4 8:00 AM, Santa Maria, Weather by CustomWeather, © 2015

Note: Actual official high and low records may vary slightly from our data, if they occured in-between our weather recording intervals... More about our weather records

Advertising

Santa Maria weather history for previous 24 hours

 ConditionsComfort  
Time TempWeatherWind HumidityBarometerVisibility
8:00 AM
Tue, Aug 4
79 °FScattered clouds.12 mph74%29.98 "HgN/A
7:00 AM77 °FScattered clouds.10 mph83%29.98 "HgN/A
6:00 AM77 °FPartly sunny.8 mph83%29.98 "HgN/A
5:00 AM75 °FPartly sunny.9 mph89%29.95 "HgN/A
4:00 AM75 °FPassing clouds.7 mph89%29.95 "HgN/A
3:00 AM75 °FPassing clouds.7 mph89%29.98 "HgN/A
2:00 AM77 °FPassing clouds.8 mph83%29.98 "HgN/A
1:00 AM77 °FPartly cloudy.7 mph83%30.01 "HgN/A
12:00 AM77 °FPartly cloudy.6 mph83%30.01 "HgN/A
11:00 PM
Mon, Aug 3
77 °FPassing clouds.8 mph83%30.04 "HgN/A
10:00 PM77 °FPassing clouds.8 mph83%30.04 "HgN/A
9:00 PM77 °FPassing clouds.8 mph83%30.01 "HgN/A
8:00 PM79 °FPassing clouds.8 mph79%30.01 "HgN/A
7:00 PM79 °FPassing clouds.8 mph79%29.98 "HgN/A
6:00 PM81 °FPassing clouds.12 mph74%29.98 "HgN/A
5:00 PM81 °FPartly sunny.12 mph74%29.98 "HgN/A
4:00 PM82 °FPartly sunny.13 mph70%29.98 "HgN/A
3:00 PM86 °FPartly sunny.13 mph62%29.98 "HgN/A
2:00 PM86 °FScattered clouds.14 mph62%29.98 "HgN/A
1:00 PM84 °FPartly sunny.14 mph66%30.01 "HgN/A
12:00 PM82 °FPartly sunny.14 mph70%30.01 "HgN/A
11:00 AM81 °FBroken clouds.N/A79%30.04 "HgN/A
10:00 AM79 °FBroken clouds.13 mph84%30.01 "HgN/A
9:00 AM79 °FBroken clouds.12 mph84%30.01 "HgN/A
Weather by CustomWeather, © 2015

See weather overviewHow to use our weather pages